Torna al catalogo

PEGASUS DEB

AttivoPO
NORAD 39921·DEBRIS·🇺🇸 United States

Lanciato May 19, 1994 da Vandenberg Space Force Base

Loading…

Prossimi Passaggi (prossime 24 ore)

TLE

In scadenzaSource: Space-Track

Epoca: Sep 5, 2026, 10:32 UTC

1 39921U 94029AFU 26248.43954166  .00001388  00000-0  36385-3 0  9996
2 39921  81.5359 141.3258 0370608 103.9409 260.3269 14.14716054 56496

Traccia PEGASUS DEB in tempo reale con AllMySat

Download on the App Store